Weather History for PFNO - August, 2014

Change the Weather History Date:

Thursday, August 14, 2014

  Actual Average Record
Temperature  
Mean Temperature 62 °F -  
Max Temperature 68 °F - - ()
Min Temperature 57 °F - - ()
Degree Days  
Heating Degree Days 2    
Growing Degree Days 12 (Base 50)    
Moisture  
Dew Point 55 °F    
Average Humidity 79    
Maximum Humidity 93    
Minimum Humidity 59    
Precipitation  
Precipitation 0.10 in - - ()
Sea Level Pressure  
Sea Level Pressure 29.63 in    
Wind  
Wind Speed 12 mph (ENE)    
Max Wind Speed 17 mph    
Max Gust Speed 28 mph    
Visibility 6 miles    
Events Rain    
T = Trace of Precipitation, MM = Missing Value Source: NWS Daily Summary

Daily Weather History Graph

Daily Weather History Graph

Search for Another Location

Airport or City:

Trip Planner

Search our weather history database for the weather conditions in past years. The results will help you decide how hot, cold, wet, or windy it might be!

Date:

Astronomy

Aug. 14, 2014 Rise Set
Actual Time 6:12 AM AKDT 11:22 PM AKDT
Civil Twilight 4:47 AM AKDT 12:44 AM AKDT
Nautical Twilight Sun does not set Sun does not set
Astronomical Twilight Sun does not set Sun does not set
Moon 11:13 PM AKDT (8/14) 1:33 PM AKDT (8/14)
Length of Visible Light 19h 56m
Length of Day
17h 10m
Waning Gibbous, 78% of the Moon is Illuminated
Aug 14
Waning Gibbous
Aug 17
Last Quarter
Aug 25
New
Sep 2
First Quarter
Sep 8
Full

Hourly Weather History & Observations

Time (AKDT) Temp. Dew Point Humidity Pressure Visibility Wind Dir Wind Speed Gust Speed Precip Events Conditions
12:58 AM 61.0 °F 54.0 °F 78% 29.63 in 8.0 mi ENE 12.7 mph - N/A   Overcast
1:58 AM 57.9 °F 53.1 °F 84% 29.63 in 8.0 mi ENE 12.7 mph - N/A   Clear
2:58 AM 57.9 °F 53.1 °F 84% 29.64 in 8.0 mi ENE 8.1 mph - N/A   Mostly Cloudy
3:58 AM 59.0 °F 52.0 °F 78% 29.64 in 8.0 mi East 15.0 mph - N/A   Clear
4:58 AM 57.9 °F 52.0 °F 81% 29.64 in 8.0 mi ENE 15.0 mph - N/A   Clear
5:58 AM 57.0 °F 52.0 °F 83% 29.65 in 6.0 mi ENE 12.7 mph - N/A   Haze
6:58 AM 57.9 °F 53.1 °F 84% 29.65 in 6.0 mi ENE 13.8 mph - N/A   Haze
7:58 AM 57.9 °F 53.1 °F 84% 29.66 in 6.0 mi ENE 9.2 mph - N/A   Haze
9:58 AM 59.0 °F 55.0 °F 87% 29.66 in 8.0 mi ENE 12.7 mph - 0.00 in Rain Light Rain
10:58 AM 62.1 °F 55.0 °F 78% 29.66 in 6.0 mi ENE 16.1 mph - 0.00 in   Haze
11:58 AM 64.0 °F 54.0 °F 70% 29.66 in 7.0 mi NE 13.8 mph - N/A   Clear
12:58 PM 64.9 °F 54.0 °F 68% 29.65 in 6.0 mi NE 13.8 mph - N/A   Haze
1:58 PM 66.9 °F 52.0 °F 59% 29.64 in 6.0 mi East 16.1 mph - N/A   Haze
2:58 PM 66.9 °F 53.1 °F 61% 29.63 in 6.0 mi East 15.0 mph 23.0 mph N/A   Haze
3:58 PM 68.0 °F 55.0 °F 63% 29.63 in 6.0 mi East 11.5 mph - N/A   Haze
4:58 PM 68.0 °F 54.0 °F 61% 29.62 in 5.0 mi East 10.4 mph - N/A   Haze
5:32 PM 60.8 °F 57.2 °F 88% 29.63 in 2.5 mi SE 15.0 mph 27.6 mph 0.06 in Rain Rain
5:41 PM 60.8 °F 57.2 °F 88% 29.62 in 6.0 mi SE 17.3 mph 23.0 mph 0.06 in Rain Light Rain
5:58 PM 60.1 °F 57.9 °F 93% 29.63 in 6.0 mi SE 13.8 mph - 0.07 in Rain Light Rain
6:58 PM 64.0 °F 57.9 °F 80% 29.62 in 6.0 mi East 9.2 mph 19.6 mph 0.03 in   Haze
7:33 PM 64.4 °F 57.2 °F 77% 29.61 in 7.0 mi NNE 9.2 mph - N/A   Overcast
7:50 PM 64.4 °F 57.2 °F 77% 29.61 in 7.0 mi North 8.1 mph - N/A   Overcast
7:58 PM 64.9 °F 57.9 °F 78% 29.62 in 6.0 mi Variable 6.9 mph - N/A   Haze
8:58 PM 64.0 °F 57.9 °F 80% 29.61 in 6.0 mi East 13.8 mph 20.7 mph N/A   Haze
9:58 PM 62.1 °F 57.0 °F 84% 29.61 in 7.0 mi NNE 6.9 mph - N/A   Partly Cloudy
10:58 PM 59.0 °F 55.9 °F 90% 29.61 in 6.0 mi NE 6.9 mph - N/A   Mostly Cloudy
11:58 PM 57.0 °F 55.0 °F 93% 29.61 in 6.0 mi ENE 10.4 mph - N/A   Clear